Location: Rockford
(42.2710°N, 89.0940°W)
Time: 18:26:33
(UTC-05:00)

SPOT 5 - Visible Passes

Search period start: 22 July 2014 00:00
Search period end: 01 August 2014 00:00
Orbit: 824 x 826 km, 98.6° (Epoch: 22 July)

Date Brightness Start Highest point End Pass type
(mag) Time Alt. Az. Time Alt. Az. Time Alt. Az.
22 Jul 3.3 22:13:19 19° S 22:17:12 73° WSW 22:22:35 10° NNW visible
23 Jul 3.1 21:53:47 18° SSE 21:57:52 77° ENE 22:03:15 10° N visible
23 Jul 5.5 23:36:00 10° WSW 23:38:38 14° W 23:41:16 10° WNW visible
24 Jul 3.5 21:34:15 15° SE 21:38:35 52° ENE 21:43:47 10° N visible
24 Jul 5.1 23:15:43 12° SW 23:19:04 21° W 23:23:02 10° NW visible
25 Jul 3.9 21:14:43 11° SE 21:19:22 36° ENE 21:24:13 10° N visible
25 Jul 4.6 22:56:11 16° SSW 22:59:33 31° W 23:04:16 10° NW visible
26 Jul 4.4 20:55:54 10° ESE 21:00:11 25° ENE 21:04:29 10° N visible
26 Jul 4.0 22:36:39 20° SSW 22:40:06 45° W 22:45:15 10° NNW visible
27 Jul 3.4 22:17:08 21° S 22:20:42 68° WSW 22:26:04 10° NNW visible
28 Jul 3.1 21:57:36 20° SSE 22:01:21 83° ENE 22:06:45 10° NNW visible
28 Jul 5.6 23:39:59 10° WSW 23:42:11 12° W 23:44:24 10° WNW visible
29 Jul 3.4 21:38:05 17° SE 21:42:04 56° ENE 21:47:19 10° N visible
29 Jul 5.2 23:19:33 12° SW 23:22:36 19° W 23:26:22 10° NW visible
30 Jul 3.8 21:18:33 13° SE 21:22:50 38° ENE 21:27:46 10° N visible
30 Jul 4.7 23:00:01 17° SW 23:03:05 28° W 23:07:41 10° NW visible
31 Jul 4.3 20:59:14 10° ESE 21:03:39 27° ENE 21:08:04 10° N visible
31 Jul 4.1 22:40:30 21° SSW 22:43:37 42° W 22:48:42 10° NNW visible
